Wind_Speed
20 23 24 24 24 24 24 22 22 20 19 19 18 18 18 17 16 15 14 14 13 13 12 11 10 10 11 10 10 10 10 10 10 10 10 10 9 9 9 9 8 8 8 8 8 9 9 8 8 7 7 7 7 6 6 6 6 6 6 6 6 6 6
17 17 20 21 22 24 26 24 23 23 20 19 19 19 19 18 17 17 16 16 15 14 13 12 11 11 11 11 11 11 11 10 10 10 10 10 10 10 9 9 9 9 9 9 9 9 9 9 8 8 8 7 7 7 6 6 6 6 6 6 6 6 6
16 15 15 16 18 22 27 28 25 24 23 21 20 20 19 19 19 18 18 18 17 16 15 14 13 13 12 12 12 12 11 11 11 11 11 10 10 10 9 9 9 9 9 9 9 9 9 8 8 8 7 7 7 7 7 7 7 7 7 7 6 6 6
13 13 13 15 16 18 25 30 28 25 23 22 22 20 19 20 20 21 21 20 18 17 17 15 15 14 14 14 13 13 13 12 12 12 11 11 11 10 10 10 10 10 10 10 10 9 9 9 8 8 8 8 7 7 7 7 7 7 7 7 7 7 7
15 13 13 15 16 15 19 26 29 27 24 22 21 20 21 22 21 21 22 21 20 19 18 17 17 16 16 16 15 15 14 14 13 13 12 12 11 12 11 11 11 11 10 10 10 10 9 9 9 9 8 8 8 8 8 8 8 7 8 7 7 8 8
20 14 11 13 15 14 13 17 23 27 26 25 24 23 24 24 21 21 22 21 21 21 20 19 19 18 18 18 17 16 16 15 15 14 14 14 13 13 13 12 12 12 12 11 11 11 11 10 10 10 9 9 9 9 8 8 8 8 8 8 8 8 8
24 20 14 13 14 15 13 13 16 21 24 26 28 27 26 24 22 22 23 22 21 22 22 22 21 19 19 19 18 18 17 17 17 16 16 16 15 15 14 14 14 14 13 13 13 13 13 12 12 12 11 11 10 10 10 10 10 10 10 10 9 9 9
26 26 22 16 15 17 17 15 15 16 18 23 27 29 27 25 25 24 23 23 23 23 22 22 22 21 21 20 18 19 19 18 18 18 17 17 17 17 16 16 16 15 15 15 14 14 14 14 14 14 14 13 13 13 13 13 13 12 12 12 12 11 11
24 25 23 18 16 17 18 17 16 15 15 17 22 28 30 28 26 26 27 27 25 24 23 23 24 24 23 21 20 21 21 20 19 19 19 19 18 18 18 18 17 16 16 15 15 15 15 15 15 15 15 15 15 15 15 15 15 15 15 14 14 14 14
22 22 22 20 16 16 17 17 16 17 16 14 16 24 32 31 28 27 29 29 26 24 24 24 24 22 20 20 21 22 23 22 20 19 20 20 20 20 20 19 19 18 18 17 16 16 15 15 16 16 16 16 16 16 17 17 17 17 16 16 16 16 16
19 20 20 18 15 15 16 17 15 15 15 13 13 17 26 31 32 31 30 28 25 23 23 22 23 22 20 19 21 23 24 24 23 21 21 21 21 21 21 21 21 20 19 19 18 18 17 16 16 16 16 16 16 16 17 17 18 18 18 18 17 17 16
19 20 19 18 16 16 17 16 14 13 14 14 14 15 17 23 30 34 34 31 26 24 25 25 26 26 24 23 23 23 23 24 22 20 20 20 21 22 23 23 22 22 22 21 20 20 18 17 18 17 17 17 17 17 17 18 18 19 19 19 18 18 17
20 21 22 20 18 19 20 17 13 14 16 16 16 17 17 18 22 29 34 34 31 29 30 31 30 30 29 27 25 23 23 25 23 20 21 22 22 23 23 22 22 23 24 24 23 21 20 19 19 19 19 18 18 18 18 18 18 19 19 20 19 19 18
21 23 23 21 18 19 21 20 17 16 17 18 18 20 20 18 18 22 27 31 33 34 35 35 34 33 32 30 27 26 26 27 27 24 23 24 25 25 24 24 24 25 26 26 24 22 21 22 22 21 21 21 20 19 19 18 18 18 19 19 20 19 19
24 25 24 23 23 22 22 23 23 21 20 21 21 22 21 20 19 21 22 25 29 34 37 38 38 37 35 32 30 29 28 29 29 27 25 25 26 26 26 26 26 27 27 25 24 23 23 24 24 23 22 23 23 21 21 20 18 18 19 19 20 19 20
27 28 26 25 26 28 27 25 25 25 23 24 24 24 25 22 20 20 20 19 22 27 32 35 38 39 38 35 32 30 30 30 30 29 27 27 27 28 28 27 27 28 27 24 24 25 26 26 26 25 24 24 25 24 22 20 19 20 21 21 20 20 21
28 30 29 26 25 26 27 26 27 26 24 26 26 26 27 25 22 21 21 21 21 21 24 28 34 38 39 38 35 32 31 31 32 31 30 30 30 31 31 30 30 30 29 26 25 26 27 27 26 27 27 26 26 24 22 22 23 23 23 22 22 22 24
30 31 31 27 24 25 27 27 26 26 24 24 26 26 26 26 25 23 23 23 24 23 22 23 26 31 35 37 37 35 33 33 33 33 33 33 33 34 33 32 33 32 29 28 28 28 29 28 27 28 28 28 27 26 23 23 25 25 24 25 25 25 25
30 31 32 32 30 29 28 26 23 22 22 22 24 25 24 24 23 23 22 23 25 27 26 24 23 23 26 32 37 37 36 35 35 36 36 36 35 36 35 34 34 33 31 30 30 31 30 30 29 29 29 29 30 29 27 26 27 26 27 28 28 28 27
30 31 32 34 35 32 28 26 23 21 20 20 21 22 22 21 20 20 21 22 24 27 28 27 26 24 23 27 33 38 38 38 38 38 38 38 38 37 36 35 35 35 34 32 33 33 31 31 31 30 31 31 31 32 31 30 29 29 29 30 30 30 30
29 32 33 34 34 31 29 27 26 23 20 19 19 20 19 19 17 17 18 19 21 24 27 28 29 28 26 27 30 38 43 41 40 41 39 39 40 39 37 37 37 37 37 36 36 34 32 32 32 32 33 33 34 34 34 32 31 31 31 31 32 32 33
28 31 35 35 34 32 31 31 31 28 23 20 19 19 18 16 15 14 15 16 17 19 22 25 27 28 28 27 26 33 44 45 42 41 39 39 40 40 40 40 38 38 38 38 38 37 34 33 33 35 36 36 37 37 36 33 32 32 32 32 33 34 34
29 30 33 35 34 33 33 35 34 30 25 23 20 18 17 15 14 13 12 11 13 14 15 18 20 22 25 25 23 24 37 43 40 39 39 39 40 40 40 41 39 38 38 39 39 39 36 34 35 35 37 39 40 40 38 35 34 35 35 35 35 36 37
29 31 32 31 32 34 35 38 38 32 27 27 23 19 16 14 13 12 9 7 8 9 11 12 12 15 19 21 19 19 26 34 36 36 35 34 35 36 38 41 42 41 40 40 40 40 38 36 35 34 35 37 40 41 40 39 39 39 39 39 39 38 39
29 31 32 29 30 35 37 37 37 32 28 27 23 19 15 12 12 11 11 11 11 10 11 10 9 12 16 17 17 17 19 22 25 24 22 20 20 23 27 33 39 43 44 43 40 39 38 36 34 33 32 35 39 43 42 42 43 43 43 44 44 44 44
28 29 30 28 29 34 36 34 32 28 25 23 20 17 14 11 11 11 12 13 12 12 12 10 9 12 15 16 19 21 21 21 20 18 17 14 13 14 16 20 26 33 39 41 41 40 39 36 33 31 31 33 36 40 42 43 46 47 47 48 48 47 48
27 26 26 27 26 27 29 30 29 25 22 20 18 16 14 12 12 11 11 11 10 10 11 10 9 9 10 13 16 18 20 22 23 23 22 21 19 17 16 17 18 20 23 27 32 36 38 38 35 33 36 34 27 25 30 35 39 43 46 49 50 50 51
24 23 23 25 25 22 20 22 23 21 20 19 17 16 15 14 14 13 13 12 11 11 11 12 13 12 11 12 12 14 16 19 21 23 25 25 23 20 18 18 18 18 17 16 19 22 28 33 34 34 37 35 25 22 22 22 25 32 35 36 41 45 48
21 21 22 23 22 21 21 22 22 22 21 20 18 18 17 17 17 16 15 14 13 12 13 14 15 15 15 14 13 13 14 15 17 19 20 22 22 21 19 18 18 19 18 17 17 17 19 24 27 29 30 31 29 28 24 17 16 22 25 24 29 33 36
20 19 20 21 20 20 21 23 23 23 22 21 20 20 20 19 19 18 18 17 16 15 15 16 16 17 17 16 16 15 15 15 16 16 17 18 19 20 20 19 18 18 19 19 19 19 19 20 22 23 25 27 29 31 30 24 20 21 23 25 27 28 29
20 19 19 20 21 21 22 22 22 22 22 22 22 22 22 22 22 21 20 20 18 17 17 17 18 19 19 19 19 18 18 18 18 18 18 18 18 19 20 20 19 19 19 20 20 21 21 21 21 22 23 25 27 29 30 29 27 24 25 26 27 28 28
20 20 21 22 22 23 24 24 24 23 23 24 25 24 24 24 24 23 23 21 20 20 19 19 20 21 21 22 22 22 22 22 21 21 21 21 21 21 21 21 21 21 21 21 21 21 21 22 22 22 22 23 24 25 26 26 25 25 25 26 27 28 29
20 20 22 23 25 26 27 28 28 28 28 28 28 27 26 26 25 25 24 23 22 21 21 21 21 22 23 24 24 25 25 25 24 24 24 24 24 24 24 24 23 23 23 23 22 22 22 22 23 23 23 23 23 24 25 25 26 26 26 28 28 28 27
19 21 23 24 25 26 28 29 30 30 31 31 31 30 28 27 26 26 25 24 23 22 22 22 22 23 24 24 25 26 27 27 27 26 26 26 26 26 26 26 26 25 25 25 24 24 24 24 24 25 25 25 25 25 26 26 27 28 28 29 29 28 26
17 20 22 23 25 25 26 27 28 28 29 29 30 30 29 28 28 28 27 26 25 24 23 22 22 23 24 25 26 27 27 28 28 27 27 27 27 27 27 27 27 27 26 26 26 26 26 26 27 27 27 28 28 29 29 29 29 30 31 31 30 29 29
14 16 19 21 22 24 25 26 28 28 28 28 28 28 29 29 29 28 27 26 25 25 24 22 22 22 23 24 25 26 26 26 27 27 27 27 28 28 28 28 28 27 27 27 27 27 27 27 28 29 29 30 30 31 31 31 31 31 32 33 32 32 32
12 13 14 16 17 19 21 23 26 28 29 29 28 28 28 28 28 27 26 25 25 24 23 22 21 21 21 22 23 23 23 24 24 24 25 26 26 27 28 28 28 28 28 28 27 27 28 28 28 29 29 30 31 32 32 32 33 33 33 34 34 34 34
12 12 12 13 13 14 16 18 19 22 25 26 27 27 26 26 26 25 24 23 22 22 22 21 20 20 20 20 20 21 21 21 22 23 23 24 25 25 26 27 28 28 28 28 28 28 29 29 29 29 30 30 31 32 32 33 34 34 34 34 35 36 36
Wind_Direction
232 232 230 226 227 226 224 228 228 223 224 228 226 221 219 219 218 217 220 227 230 229 231 229 226 228 227 223 224 223 222 221 220 221 221 220 217 211 209 207 205 204 199 200 204 205 207 207 206 206 203 202 202 201 204 204 203 203 203 201 198 195 193
228 223 223 225 230 228 224 227 229 225 223 224 228 228 223 220 221 222 224 227 230 230 230 232 231 231 230 228 228 227 227 227 226 226 225 225 225 221 217 215 212 212 210 207 209 210 212 211 210 210 209 207 208 208 212 216 217 219 219 216 214 212 210
240 230 226 230 238 235 226 224 228 229 226 221 226 231 227 223 221 224 228 228 230 233 231 232 232 233 233 231 231 231 230 230 230 231 230 229 230 229 226 223 220 219 219 219 219 220 219 220 218 217 217 217 218 218 219 223 227 229 231 229 225 223 224
263 251 245 244 249 246 229 220 222 227 229 226 227 228 230 231 226 225 229 229 230 233 233 233 233 232 234 233 233 234 233 233 233 233 235 234 234 236 234 232 229 227 227 226 227 229 228 228 227 225 225 225 226 227 227 228 231 233 235 235 232 228 228
266 260 252 246 245 248 232 220 221 225 226 230 229 223 225 232 231 229 232 231 229 231 233 234 233 232 233 233 234 235 234 235 235 234 236 237 238 240 240 239 240 237 237 236 236 236 235 235 236 235 234 233 234 236 237 238 238 239 240 238 235 231 229
255 252 245 244 241 241 235 226 229 231 228 228 226 222 225 229 229 228 233 235 233 230 230 230 232 232 233 233 234 235 236 238 239 237 236 237 239 242 243 245 246 246 246 247 247 249 247 246 246 246 246 244 244 245 246 248 249 248 247 245 242 237 234
247 245 241 244 247 246 238 225 230 235 232 230 227 224 225 229 230 227 229 235 235 232 230 230 231 233 233 233 232 233 236 239 241 241 240 239 240 242 244 246 248 249 250 251 251 252 254 255 254 254 255 254 253 253 253 253 254 254 254 254 253 250 244
248 248 245 241 247 249 240 224 220 226 229 233 233 228 225 227 229 227 228 235 237 237 236 233 232 231 230 230 230 231 233 235 237 239 241 241 241 242 244 246 248 250 251 253 254 253 255 257 258 258 259 258 257 255 254 254 254 255 256 257 258 257 256
246 248 247 245 247 247 240 230 224 222 224 232 234 229 227 225 226 229 232 235 235 235 238 234 228 228 229 230 233 233 232 231 232 235 238 240 243 244 244 245 247 250 251 252 254 255 255 256 257 259 258 258 258 256 255 254 254 254 255 256 258 259 259
241 245 247 249 251 246 243 239 232 227 227 233 233 229 230 228 225 229 231 230 229 235 242 236 224 227 235 236 238 240 239 235 232 232 235 238 242 245 246 246 247 249 251 253 254 254 255 255 255 255 256 257 256 256 256 255 254 254 254 254 257 259 260
240 242 242 244 244 240 239 236 232 230 227 231 235 234 237 234 228 227 228 228 231 237 243 233 219 229 245 246 243 241 239 239 237 235 236 238 240 242 244 246 248 249 250 252 253 253 253 254 254 253 254 256 256 255 256 255 254 254 254 254 256 257 260
240 237 234 234 233 229 225 219 220 229 230 236 243 245 250 243 233 230 231 235 238 238 238 233 230 239 248 249 248 242 234 233 233 236 240 242 243 245 246 247 246 248 251 251 252 254 253 254 256 255 253 254 255 255 253 253 254 254 254 254 255 257 259
245 237 231 233 239 239 233 224 222 229 231 240 249 252 256 253 241 236 237 241 244 242 240 238 239 242 243 244 246 241 233 229 231 240 244 241 241 243 244 244 244 247 250 249 249 252 255 255 256 256 255 252 252 253 253 253 254 254 254 255 254 255 257
250 244 237 237 242 247 245 241 244 244 238 241 248 251 255 257 252 247 246 245 245 244 242 239 238 240 240 240 239 237 236 235 239 249 250 242 243 242 236 237 245 250 251 250 249 249 250 251 251 251 253 251 249 249 251 252 253 254 254 255 256 256 257
252 248 244 241 242 249 255 257 258 256 251 249 251 254 258 262 260 254 252 248 244 243 242 239 237 238 239 238 237 236 238 238 242 249 248 245 248 248 241 242 248 247 245 247 249 249 249 249 249 249 250 252 250 246 245 247 252 257 257 257 258 259 258
253 249 247 244 245 251 258 263 264 261 257 255 256 258 262 266 265 261 259 256 249 245 243 240 238 240 241 240 238 237 239 240 240 242 243 242 242 242 243 248 249 242 239 243 247 248 249 249 249 249 248 249 250 249 248 248 248 249 251 254 256 256 254
252 250 246 239 239 248 255 260 264 265 261 257 258 261 264 267 269 267 262 256 253 250 247 244 244 245 245 244 240 238 239 240 239 239 239 240 238 236 239 243 243 239 241 249 251 249 250 251 252 251 248 246 246 247 248 249 246 244 246 248 250 252 253
248 248 247 242 236 240 248 252 256 258 257 256 260 263 265 268 271 273 270 261 255 253 254 252 249 248 249 247 243 240 239 238 238 238 238 238 239 238 239 240 240 239 241 248 252 252 251 253 254 252 250 247 244 242 242 245 248 249 250 250 250 251 251
244 243 245 245 240 239 242 242 243 247 249 252 258 262 266 270 273 275 277 274 267 262 262 262 257 252 252 249 243 240 239 240 239 239 239 239 239 240 240 240 242 243 243 242 245 249 252 255 255 253 253 251 248 244 241 243 247 250 251 252 253 254 254
240 238 239 242 241 240 240 238 237 240 242 244 251 256 260 265 268 271 274 278 276 271 268 266 263 262 263 257 245 238 237 239 241 241 241 240 240 241 242 242 244 246 247 244 243 245 249 252 254 254 255 254 252 249 246 246 248 251 252 253 255 256 257
237 235 234 236 236 234 234 237 239 235 232 232 236 241 247 253 260 267 270 273 277 277 274 270 267 267 271 271 256 239 233 235 238 241 243 243 242 242 243 244 245 247 248 248 247 247 247 248 251 255 257 257 256 254 252 251 252 253 255 257 259 259 257
235 233 231 232 233 232 232 235 235 230 225 225 228 232 239 247 252 257 262 266 269 274 275 272 270 271 273 279 273 246 233 233 237 241 245 248 247 246 245 245 246 246 247 249 249 250 250 249 251 255 258 261 262 260 258 257 257 257 257 257 259 261 259
236 233 230 230 231 231 232 231 229 226 222 221 224 227 232 242 248 249 255 266 270 274 274 270 272 276 276 279 282 257 236 234 239 244 248 251 252 251 248 246 245 245 246 249 250 250 250 249 251 255 259 262 264 266 266 265 264 263 261 260 259 260 260
238 232 229 229 229 231 232 227 223 220 216 216 222 225 227 235 245 246 249 260 270 278 280 277 277 282 279 275 275 265 244 236 238 242 245 248 252 254 253 250 248 248 250 254 254 251 249 250 251 254 258 260 263 267 268 267 265 264 264 263 262 261 261
240 236 231 229 228 229 227 218 211 208 211 217 223 226 227 235 242 244 247 249 251 256 263 262 247 249 261 264 264 265 258 246 241 239 238 241 248 255 258 256 254 253 255 256 255 250 250 252 252 253 259 265 267 266 266 265 264 263 263 263 263 263 262
243 242 238 235 227 218 211 203 199 202 210 217 223 226 231 240 245 248 251 251 252 255 260 261 245 236 247 256 259 264 265 262 259 253 248 255 266 270 270 267 263 259 255 254 253 252 251 254 254 254 259 267 269 266 263 261 260 260 261 262 263 264 264
248 246 243 240 230 213 198 191 193 204 215 221 226 230 234 239 243 247 252 254 257 260 264 271 273 263 259 260 262 266 266 265 266 263 261 270 282 285 285 285 283 276 265 256 253 253 254 255 256 256 256 261 273 277 269 266 263 258 256 258 260 263 265
252 249 244 239 234 227 217 205 201 208 216 219 220 224 229 235 238 239 244 252 258 261 261 265 269 270 270 268 266 266 264 264 266 267 268 275 282 287 289 290 291 290 286 276 263 255 252 252 252 253 252 253 264 274 268 266 267 260 256 260 262 263 264
254 250 247 241 239 245 249 239 222 212 209 210 214 221 228 235 238 240 244 248 254 258 259 259 261 262 263 265 267 268 268 267 269 271 274 278 281 284 286 287 288 289 288 288 283 271 259 251 247 250 250 248 254 261 254 241 244 250 255 268 273 271 269
251 247 245 242 240 243 247 240 227 216 210 210 216 225 231 238 242 244 247 249 252 256 257 257 257 257 257 259 262 264 267 269 270 272 274 276 279 281 282 282 284 285 285 288 288 284 279 271 262 262 263 259 261 267 265 261 266 271 272 277 282 285 285
248 243 239 236 232 231 232 229 223 220 219 219 223 229 235 241 246 248 249 250 251 253 254 253 254 255 256 258 259 260 261 264 267 268 269 271 273 275 278 279 279 281 282 284 286 286 285 285 281 278 278 275 274 277 279 281 287 291 288 286 287 289 290
245 240 235 232 229 227 225 223 222 225 229 229 229 232 237 242 247 251 251 251 251 252 251 250 251 252 254 256 258 259 260 261 263 265 267 269 270 270 273 274 275 276 277 277 280 282 282 284 284 282 281 280 279 281 284 285 285 283 281 282 284 284 285
245 241 234 230 229 229 228 228 229 232 234 234 234 235 239 243 247 250 251 253 253 252 250 249 250 251 252 254 256 257 259 260 263 265 267 268 270 271 272 273 273 274 274 274 275 276 277 277 279 278 278 277 276 276 277 277 276 274 273 274 276 278 281
250 246 239 232 229 228 228 230 232 235 236 237 238 239 241 243 246 249 252 255 256 255 252 250 250 251 253 255 256 256 258 260 262 265 268 270 272 272 273 274 275 275 275 274 273 272 272 272 272 272 273 272 271 271 271 272 271 269 269 270 272 273 275
258 253 248 241 235 232 229 229 230 232 233 235 238 240 242 245 247 249 251 254 256 257 255 252 252 253 254 257 259 259 260 261 262 265 269 271 274 275 276 277 277 277 276 276 273 271 270 269 267 267 267 267 266 265 266 266 267 266 266 268 269 269 270
261 257 253 248 243 239 237 234 232 232 233 234 237 242 245 248 250 249 249 250 253 256 257 256 255 256 257 258 261 262 263 264 265 266 269 271 273 275 277 278 278 278 278 278 278 276 273 270 268 266 265 265 265 265 265 265 266 265 265 266 267 269 269
257 256 253 250 246 242 240 239 237 237 237 237 239 243 248 250 251 249 247 247 249 253 257 259 259 258 258 259 261 263 265 267 267 268 270 271 273 274 276 277 278 279 280 280 281 281 280 278 275 273 270 269 268 269 270 270 270 270 270 269 268 268 269
250 252 250 248 246 242 240 240 240 239 239 239 240 244 247 248 248 248 247 248 249 252 256 259 260 260 260 260 261 263 265 268 269 270 270 271 273 274 276 277 278 279 280 281 282 282 283 282 282 280 279 277 275 274 274 274 275 275 275 274 272 271 270
Height
5883 5884 5885 5887 5889 5891 5893 5895 5896 5897 5898 5899 5899 5901 5902 5903 5904 5906 5907 5908 5909 5910 5911 5913 5914 5915 5916 5916 5917 5918 5919 5920 5921 5921 5922 5923 5924 5924 5925 5926 5927 5927 5928 5928 5929 5929 5930 5931 5932 5932 5933 5933 5934 5934 5935 5935 5936 5936 5936 5937 5937 5938 5938
5882 5882 5883 5885 5887 5889 5891 5893 5894 5895 5896 5897 5898 5899 5901 5902 5903 5904 5905 5907 5908 5909 5911 5912 5913 5914 5915 5916 5917 5917 5918 5919 5920 5921 5922 5923 5923 5924 5925 5926 5927 5927 5928 5928 5929 5929 5930 5931 5931 5932 5933 5933 5934 5934 5934 5935 5936 5936 5936 5937 5937 5937 5938
5881 5882 5882 5884 5885 5887 5888 5890 5892 5893 5894 5896 5897 5898 5899 5900 5901 5902 5904 5906 5907 5908 5910 5911 5912 5913 5914 5915 5916 5917 5918 5919 5920 5920 5921 5922 5923 5924 5925 5926 5926 5927 5928 5928 5929 5929 5930 5930 5931 5931 5932 5933 5933 5934 5934 5935 5935 5936 5936 5936 5937 5937 5937
5880 5882 5883 5883 5884 5884 5885 5887 5889 5891 5893 5894 5896 5896 5897 5899 5900 5901 5902 5903 5905 5907 5908 5909 5911 5912 5913 5914 5915 5916 5917 5918 5919 5920 5921 5922 5923 5924 5924 5925 5926 5926 5927 5928 5928 5929 5929 5930 5930 5931 5932 5932 5933 5933 5934 5934 5935 5935 5936 5936 5936 5937 5937
5878 5880 5881 5881 5882 5883 5884 5885 5887 5889 5890 5892 5894 5895 5896 5898 5899 5899 5899 5901 5903 5905 5906 5908 5909 5911 5912 5913 5914 5915 5916 5917 5918 5919 5920 5921 5922 5923 5924 5924 5925 5926 5926 5927 5928 5928 5929 5929 5930 5931 5931 5932 5933 5933 5934 5934 5935 5935 5935 5936 5936 5937 5937
5877 5879 5879 5879 5880 5882 5883 5884 5885 5886 5887 5889 5891 5893 5895 5896 5897 5898 5898 5899 5901 5902 5904 5906 5907 5909 5910 5912 5913 5914 5915 5917 5917 5918 5919 5920 5921 5922 5923 5924 5924 5925 5926 5926 5927 5928 5928 5929 5929 5930 5931 5931 5932 5933 5933 5934 5934 5935 5935 5936 5936 5937 5937
5874 5877 5879 5879 5879 5880 5880 5881 5882 5883 5885 5887 5889 5890 5893 5895 5896 5896 5897 5897 5899 5900 5902 5903 5905 5907 5909 5910 5912 5913 5914 5915 5916 5917 5918 5919 5920 5920 5921 5922 5923 5924 5925 5925 5926 5927 5927 5928 5928 5929 5930 5931 5931 5932 5932 5933 5934 5934 5935 5935 5936 5936 5937
5871 5873 5876 5877 5878 5878 5878 5877 5879 5881 5883 5884 5886 5888 5891 5893 5894 5895 5896 5896 5898 5899 5900 5901 5903 5905 5906 5908 5910 5911 5912 5913 5914 5915 5916 5917 5918 5919 5920 5921 5922 5923 5924 5924 5925 5926 5926 5927 5927 5928 5929 5930 5930 5931 5931 5932 5932 5933 5934 5935 5935 5936 5936
5869 5869 5871 5874 5875 5876 5877 5876 5876 5878 5880 5881 5883 5885 5887 5889 5892 5893 5894 5894 5896 5897 5898 5900 5901 5902 5904 5905 5907 5908 5910 5911 5912 5913 5914 5915 5916 5917 5918 5919 5920 5921 5922 5923 5924 5924 5925 5926 5926 5927 5927 5928 5929 5929 5930 5931 5931 5932 5932 5933 5934 5934 5935
5866 5867 5870 5872 5874 5875 5876 5876 5875 5875 5877 5879 5881 5883 5884 5887 5889 5890 5890 5891 5893 5895 5897 5900 5901 5902 5903 5904 5905 5906 5908 5908 5909 5910 5911 5913 5914 5915 5916 5917 5918 5920 5921 5922 5923 5923 5924 5924 5925 5925 5926 5927 5927 5928 5929 5929 5929 5930 5930 5931 5932 5932 5933
5865 5867 5868 5870 5872 5873 5874 5875 5875 5874 5875 5877 5879 5881 5882 5884 5886 5886 5887 5889 5890 5893 5896 5897 5898 5900 5901 5902 5902 5904 5906 5906 5906 5907 5908 5910 5912 5912 5913 5915 5916 5917 5919 5920 5921 5922 5922 5923 5924 5924 5924 5925 5925 5926 5927 5927 5928 5928 5929 5929 5930 5930 5931
5863 5865 5866 5866 5868 5869 5870 5871 5872 5873 5874 5875 5877 5879 5879 5880 5882 5883 5885 5886 5888 5891 5893 5893 5895 5896 5898 5899 5900 5901 5903 5904 5904 5905 5906 5908 5910 5911 5912 5912 5912 5914 5916 5918 5919 5920 5920 5921 5922 5922 5922 5923 5923 5924 5925 5925 5926 5926 5927 5927 5927 5928 5928
5859 5861 5863 5864 5865 5865 5865 5866 5868 5869 5871 5873 5875 5877 5878 5878 5879 5880 5881 5882 5885 5887 5889 5891 5892 5893 5894 5896 5898 5900 5901 5901 5902 5903 5903 5905 5907 5909 5911 5911 5911 5910 5912 5914 5916 5917 5918 5919 5919 5920 5920 5921 5921 5922 5922 5923 5924 5924 5924 5925 5925 5925 5926
5856 5857 5859 5862 5863 5863 5862 5863 5865 5866 5868 5871 5873 5874 5875 5875 5876 5877 5878 5879 5881 5882 5884 5887 5889 5890 5891 5893 5895 5897 5899 5899 5900 5901 5901 5902 5904 5905 5906 5908 5910 5909 5909 5910 5913 5915 5916 5917 5917 5917 5917 5917 5918 5919 5920 5920 5921 5922 5922 5923 5923 5923 5924
5854 5854 5856 5859 5862 5861 5860 5861 5863 5864 5866 5868 5870 5871 5872 5873 5873 5875 5876 5876 5877 5878 5880 5882 5885 5887 5888 5891 5892 5894 5896 5897 5898 5898 5899 5901 5902 5903 5904 5905 5907 5908 5907 5908 5910 5911 5912 5913 5914 5914 5914 5915 5915 5916 5916 5917 5918 5919 5920 5921 5921 5922 5922
5853 5853 5854 5856 5858 5859 5859 5860 5862 5862 5864 5865 5867 5868 5869 5870 5871 5872 5873 5873 5874 5875 5877 5879 5881 5884 5885 5888 5890 5893 5894 5895 5895 5895 5895 5897 5899 5900 5902 5903 5904 5904 5905 5906 5907 5908 5909 5910 5911 5911 5912 5912 5912 5913 5914 5915 5915 5916 5917 5918 5918 5919 5919
5850 5851 5851 5853 5854 5855 5856 5859 5860 5861 5862 5863 5864 5865 5865 5866 5868 5869 5870 5871 5872 5873 5875 5877 5879 5880 5882 5884 5887 5889 5890 5891 5892 5893 5893 5893 5894 5895 5897 5899 5900 5900 5902 5903 5905 5906 5906 5907 5908 5908 5909 5909 5909 5910 5913 5913 5911 5911 5913 5914 5915 5915 5916
5846 5847 5849 5851 5852 5852 5852 5854 5856 5857 5859 5860 5861 5862 5862 5863 5864 5865 5866 5868 5869 5871 5872 5874 5876 5877 5879 5880 5882 5885 5886 5886 5888 5889 5890 5890 5890 5891 5893 5895 5896 5897 5898 5900 5901 5903 5903 5904 5905 5905 5906 5906 5906 5907 5909 5909 5908 5909 5910 5911 5911 5912 5913
5842 5843 5845 5847 5849 5849 5849 5850 5852 5854 5855 5857 5859 5859 5860 5860 5861 5862 5863 5864 5866 5867 5869 5870 5872 5874 5875 5876 5878 5880 5881 5882 5883 5884 5885 5886 5887 5887 5889 5891 5892 5893 5894 5896 5897 5899 5901 5901 5901 5902 5902 5903 5903 5904 5905 5905 5905 5906 5907 5907 5908 5909 5910
5838 5840 5841 5842 5844 5846 5847 5848 5850 5852 5853 5854 5856 5857 5857 5858 5859 5860 5861 5862 5862 5864 5865 5867 5868 5870 5871 5872 5873 5874 5876 5877 5878 5879 5880 5881 5882 5884 5886 5887 5888 5889 5891 5892 5892 5893 5895 5897 5898 5898 5898 5898 5899 5899 5900 5902 5902 5903 5903 5904 5905 5906 5907
5835 5836 5837 5838 5841 5844 5846 5847 5848 5849 5850 5852 5853 5854 5855 5856 5857 5858 5859 5860 5860 5860 5861 5863 5864 5866 5867 5868 5868 5869 5870 5872 5873 5874 5875 5877 5878 5880 5882 5884 5884 5885 5886 5888 5888 5888 5889 5892 5894 5895 5894 5894 5895 5895 5896 5898 5899 5900 5900 5901 5901 5902 5903
5831 5832 5833 5835 5838 5840 5842 5843 5845 5846 5848 5850 5851 5852 5853 5854 5855 5856 5857 5857 5857 5857 5858 5859 5861 5862 5863 5863 5863 5864 5865 5867 5869 5870 5872 5874 5875 5876 5878 5879 5880 5881 5882 5883 5884 5885 5886 5888 5889 5890 5890 5890 5891 5890 5893 5896 5897 5897 5897 5898 5898 5898 5898
5828 5829 5830 5832 5834 5836 5838 5839 5840 5842 5844 5846 5848 5849 5850 5851 5852 5853 5853 5853 5853 5854 5855 5856 5858 5859 5860 5860 5859 5860 5861 5863 5865 5867 5869 5870 5870 5872 5874 5875 5876 5877 5877 5878 5879 5881 5883 5884 5885 5886 5887 5887 5886 5886 5889 5893 5894 5893 5894 5894 5894 5894 5894
5825 5826 5827 5829 5831 5833 5834 5833 5835 5838 5841 5843 5845 5846 5847 5848 5849 5850 5850 5850 5850 5851 5852 5854 5856 5857 5856 5855 5856 5857 5858 5859 5861 5862 5864 5865 5866 5867 5868 5870 5871 5872 5873 5874 5875 5877 5878 5880 5881 5883 5884 5883 5882 5883 5886 5888 5888 5888 5888 5888 5888 5889 5888
5822 5823 5825 5827 5827 5828 5829 5829 5831 5835 5837 5840 5842 5843 5844 5845 5846 5847 5847 5848 5849 5850 5850 5852 5855 5854 5852 5851 5853 5854 5856 5857 5858 5859 5860 5861 5862 5863 5864 5865 5866 5867 5868 5869 5871 5872 5874 5876 5877 5878 5879 5880 5879 5879 5881 5882 5882 5883 5883 5882 5882 5882 5882
5819 5821 5823 5824 5824 5823 5824 5826 5829 5832 5834 5837 5839 5840 5840 5841 5842 5843 5844 5845 5847 5848 5849 5850 5851 5851 5850 5850 5850 5852 5853 5855 5856 5857 5857 5858 5859 5860 5861 5861 5862 5862 5863 5864 5866 5868 5870 5872 5873 5875 5875 5875 5874 5873 5874 5875 5876 5877 5877 5877 5877 5877 5876
5816 5818 5820 5822 5822 5821 5821 5822 5825 5828 5831 5833 5835 5836 5837 5838 5839 5841 5842 5842 5843 5845 5845 5846 5847 5847 5848 5848 5848 5848 5849 5851 5852 5854 5854 5855 5856 5858 5858 5859 5859 5859 5859 5860 5861 5863 5865 5867 5869 5870 5870 5870 5869 5869 5868 5868 5869 5869 5870 5870 5871 5871 5871
5813 5815 5817 5818 5820 5820 5820 5820 5822 5825 5827 5829 5831 5833 5834 5836 5837 5838 5839 5840 5841 5841 5842 5843 5844 5845 5845 5845 5845 5846 5846 5847 5848 5849 5850 5851 5852 5854 5855 5856 5856 5856 5857 5857 5858 5859 5860 5862 5863 5864 5864 5865 5866 5865 5864 5862 5862 5862 5863 5864 5866 5866 5866
5810 5812 5813 5815 5816 5818 5818 5819 5820 5822 5824 5826 5828 5830 5832 5834 5835 5836 5837 5838 5838 5839 5840 5840 5841 5842 5842 5842 5843 5843 5843 5844 5845 5845 5846 5847 5848 5849 5851 5852 5853 5853 5854 5855 5855 5856 5857 5858 5858 5859 5859 5860 5861 5861 5859 5857 5856 5857 5858 5860 5860 5860 5859
5808 5809 5811 5812 5813 5815 5816 5817 5818 5820 5822 5824 5826 5828 5830 5831 5833 5834 5835 5835 5836 5837 5838 5838 5839 5839 5839 5839 5840 5840 5841 5841 5841 5842 5843 5843 5844 5845 5846 5848 5849 5850 5850 5851 5852 5853 5853 5854 5854 5855 5855 5855 5856 5855 5854 5853 5852 5853 5855 5855 5855 5854 5853
5806 5807 5808 5810 5811 5813 5814 5816 5818 5819 5821 5822 5824 5826 5827 5829 5830 5831 5832 5833 5833 5834 5835 5835 5836 5836 5836 5837 5837 5837 5838 5838 5838 5839 5840 5840 5841 5842 5843 5843 5844 5845 5846 5847 5848 5849 5850 5850 5850 5851 5851 5851 5851 5850 5849 5849 5849 5850 5850 5850 5850 5849 5848
5804 5806 5807 5808 5809 5811 5812 5814 5816 5817 5819 5820 5822 5823 5824 5826 5827 5829 5829 5830 5831 5831 5832 5832 5833 5833 5834 5834 5834 5834 5835 5835 5836 5836 5837 5837 5838 5839 5839 5840 5841 5841 5842 5843 5843 5844 5845 5846 5847 5847 5847 5847 5847 5846 5846 5845 5845 5846 5846 5846 5846 5845 5844
5802 5803 5805 5806 5807 5808 5810 5811 5813 5814 5816 5818 5819 5820 5821 5823 5824 5825 5826 5827 5828 5828 5829 5829 5830 5830 5831 5831 5831 5832 5832 5832 5833 5833 5834 5834 5835 5835 5836 5837 5837 5838 5838 5839 5839 5840 5841 5842 5842 5843 5843 5843 5843 5843 5843 5842 5842 5842 5843 5843 5843 5842 5840
5800 5801 5802 5803 5805 5806 5807 5808 5809 5811 5812 5814 5816 5817 5818 5820 5821 5822 5823 5824 5824 5825 5826 5826 5826 5827 5827 5828 5828 5828 5829 5830 5830 5830 5831 5831 5832 5832 5833 5833 5834 5835 5835 5836 5836 5836 5837 5837 5838 5838 5839 5839 5839 5839 5839 5839 5838 5838 5839 5839 5838 5837 5836
5797 5798 5799 5800 5801 5802 5804 5805 5806 5808 5809 5811 5812 5814 5815 5816 5817 5818 5819 5820 5821 5821 5822 5822 5823 5823 5824 5824 5825 5825 5826 5826 5827 5827 5828 5828 5829 5829 5830 5830 5830 5831 5832 5832 5833 5833 5833 5834 5834 5834 5835 5835 5835 5835 5835 5835 5834 5834 5834 5833 5833 5832 5831
5796 5796 5796 5797 5798 5799 5800 5802 5803 5805 5806 5807 5809 5810 5812 5813 5814 5815 5815 5816 5817 5818 5818 5819 5820 5820 5821 5821 5822 5822 5823 5823 5824 5824 5825 5825 5825 5825 5826 5826 5827 5827 5827 5828 5828 5829 5829 5830 5830 5830 5830 5830 5831 5831 5831 5831 5830 5830 5829 5828 5828 5827 5827
5794 5794 5795 5795 5796 5796 5797 5798 5799 5801 5802 5804 5805 5807 5808 5809 5810 5811 5812 5813 5814 5815 5815 5816 5817 5817 5818 5818 5819 5819 5820 5820 5821 5821 5821 5822 5822 5822 5822 5822 5823 5823 5823 5824 5824 5824 5824 5824 5825 5825 5826 5826 5826 5826 5826 5825 5825 5825 5824 5824 5823 5823 5822
5793 5793 5794 5794 5794 5795 5795 5796 5797 5798 5799 5800 5802 5803 5805 5806 5807 5808 5809 5810 5811 5812 5813 5813 5814 5814 5815 5815 5816 5817 5817 5818 5818 5819 5819 5819 5819 5819 5819 5819 5819 5820 5820 5820 5819 5819 5819 5819 5820 5820 5820 5820 5821 5821 5821 5820 5820 5820 5819 5819 5819 5818 5818